Location: USNO
(38.9242°N, 77.0663°W)
Time: 02:33:39
(UTC-04:00)

Vanguard 1 Rocket - Visible Passes

Search period start: 14 August 2018 00:00
Search period end: 24 August 2018 00:00
Orbit: 650 x 4227 km, 34.3° (Epoch: 12 August)

Date Brightness Start Highest point End Pass type
(mag) Time Alt. Az. Time Alt. Az. Time Alt. Az.
14 Aug 10.3 01:12:08 39° SE 01:12:08 39° SE 01:32:15 10° ENE visible
14 Aug 10.2 03:29:23 37° SW 03:40:30 71° SSE 04:06:46 10° E visible
14 Aug 10.8 05:49:54 10° W 06:13:49 78° S 06:38:06 10° ESE visible
15 Aug 10.8 00:04:35 22° ESE 00:04:35 22° ESE 00:14:37 10° E visible
15 Aug 9.9 02:21:49 52° S 02:26:23 60° SSE 02:51:16 10° E visible
15 Aug 10.6 04:39:04 16° WSW 04:58:10 78° S 05:24:14 10° E visible
16 Aug 10.1 01:14:15 45° SE 01:14:15 45° SE 01:35:03 10° ENE visible
16 Aug 10.3 03:31:31 35° WSW 03:42:59 74° SSE 04:09:26 10° E visible
16 Aug 10.8 05:52:47 10° W 06:16:18 75° SSW 06:40:47 10° ESE visible
17 Aug 10.6 00:06:42 26° ESE 00:06:42 26° ESE 00:18:02 10° E visible
17 Aug 9.8 02:23:56 54° SSW 02:28:43 65° SSE 02:53:52 10° E visible
17 Aug 10.5 04:41:12 14° W 05:00:44 78° S 05:26:56 10° ESE visible
17 Aug 11.2 22:59:09 10° E 22:59:09 10° E 22:59:11 10° E visible
18 Aug 9.9 01:16:24 52° SE 01:16:24 52° SE 01:37:43 10° E visible
18 Aug 10.3 03:33:39 32° WSW 03:45:33 77° S 04:12:05 10° E visible
18 Aug 10.8 05:55:41 10° W 06:18:43 72° SSW 06:43:21 10° ESE visible
19 Aug 10.5 00:08:52 31° ESE 00:08:52 31° ESE 00:21:04 10° E visible
19 Aug 9.8 02:26:07 55° SW 02:31:11 70° SSE 02:56:27 10° E visible
19 Aug 10.5 04:43:22 12° W 05:03:18 77° S 05:29:34 10° ESE visible
19 Aug 11.0 23:01:22 13° E 23:01:22 13° E 23:03:31 10° E visible
20 Aug 9.7 01:18:37 58° SE 01:18:37 58° SE 01:40:19 10° E visible
20 Aug 10.2 03:35:52 30° WSW 03:48:11 78° S 04:14:43 10° E visible
20 Aug 10.7 05:58:35 10° W 06:21:05 67° SSW 06:45:44 10° SE visible
21 Aug 10.3 00:11:08 35° ESE 00:11:08 35° ESE 00:23:53 10° E visible
21 Aug 9.7 02:28:24 54° SW 02:33:48 74° SSE 02:59:02 10° E visible
21 Aug 10.5 04:45:47 10° W 05:05:50 74° SSW 05:32:05 10° ESE visible
21 Aug 10.9 23:03:42 15° E 23:03:42 15° E 23:07:05 10° E visible
22 Aug 9.6 01:20:57 63° SSE 01:20:57 63° SSE 01:42:52 10° E visible
22 Aug 10.2 03:38:13 27° W 03:50:50 77° S 04:17:17 10° ESE visible
22 Aug 10.7 06:01:32 10° W 06:23:21 61° SSW 06:47:55 10° SE visible
23 Aug 10.1 00:13:34 38° ESE 00:13:34 38° ESE 00:26:35 10° E visible
23 Aug 9.7 02:30:50 53° WSW 02:36:29 76° S 03:01:35 10° E visible
23 Aug 10.5 04:48:47 10° W 05:08:21 70° SSW 05:34:27 10° ESE visible
23 Aug 10.8 23:06:14 17° E 23:06:14 17° E 23:10:14 10° E visible
